| time (UTC) | temp C | wind direction | speed KPH | gust KPH | rain 1hr cm | rain 24hr cm | rain mn cm | humidity % | barometer mb |
| 20260506203523 | 11 | 314 | 8.0 | 12.9 | 0.00 | 0.00 | 0.00 | 68 | 1012.2 |
| 20260506203027 | 11 | 313 | 6.4 | 9.7 | 0.00 | 0.00 | 0.00 | 70 | 1012.2 |
| 20260506202523 | 11 | 298 | 4.8 | 8.0 | 0.00 | 0.00 | 0.00 | 69 | 1012.1 |
| 20260506202022 | 11 | 302 | 4.8 | 6.4 | 0.00 | 0.00 | 0.00 | 69 | 1012.0 |
| 20260506201526 | 11 | 297 | 4.8 | 6.4 | 0.00 | 0.00 | 0.00 | 69 | 1012.0 |
| 20260506201020 | 11 | 303 | 4.8 | 6.4 | 0.00 | 0.00 | 0.00 | 68 | 1012.0 |
| 20260506200520 | 11 | 288 | 1.6 | 3.2 | 0.00 | 0.00 | 0.00 | 67 | 1011.9 |
| 20260506200020 | 11 | 329 | 0.0 | 3.2 | 0.00 | 0.00 | 0.00 | 66 | 1011.9 |
| 20260506195520 | 11 | 335 | 1.6 | 3.2 | 0.00 | 0.00 | 0.00 | 66 | 1012.0 |
| 20260506195020 | 11 | 307 | 0.0 | 3.2 | 0.00 | 0.00 | 0.00 | 65 | 1011.9 |
| 20260506194519 | 11 | 340 | 0.0 | 3.2 | 0.00 | 0.00 | 0.00 | 67 | 1011.9 |
| 20260506194018 | 11 | 9 | 0.0 | 6.4 | 0.00 | 0.00 | 0.00 | 67 | 1011.9 |
| 20260506193518 | 11 | 13 | 3.2 | 6.4 | 0.00 | 0.00 | 0.00 | 68 | 1011.9 |
| 20260506193018 | 11 | 30 | 3.2 | 6.4 | 0.00 | 0.00 | 0.00 | 68 | 1011.9 |
| 20260506192518 | 11 | 20 | 3.2 | 8.0 | 0.00 | 0.00 | 0.00 | 67 | 1011.9 |
| 20260506192017 | 11 | 18 | 4.8 | 8.0 | 0.00 | 0.00 | 0.00 | 68 | 1011.8 |
| 20260506191516 | 11 | 25 | 4.8 | 8.0 | 0.00 | 0.00 | 0.00 | 67 | 1011.6 |
| 20260506191017 | 11 | 53 | 4.8 | 8.0 | 0.00 | 0.00 | 0.00 | 68 | 1011.5 |
| 20260506190516 | 11 | 41 | 1.6 | 4.8 | 0.00 | 0.00 | 0.00 | 66 | 1011.5 |
| 20260506190014 | 11 | 80 | 1.6 | 6.4 | 0.00 | 0.00 | 0.00 | 66 | 1011.4 |
| 20260506185515 | 11 | 53 | 3.2 | 8.0 | 0.00 | 0.00 | 0.00 | 67 | 1011.4 |
| 20260506185016 | 11 | 9 | 4.8 | 8.0 | 0.00 | 0.00 | 0.00 | 67 | 1011.3 |
| 20260506184521 | 11 | 9 | 3.2 | 9.7 | 0.00 | 0.00 | 0.00 | 66 | 1011.3 |
| 20260506184013 | 11 | 9 | 6.4 | 12.9 | 0.00 | 0.00 | 0.00 | 66 | 1011.2 |
| 20260506183513 | 11 | 25 | 8.0 | 14.5 | 0.00 | 0.00 | 0.00 | 65 | 1011.2 |
| 20260506183013 | 11 | 30 | 8.0 | 14.5 | 0.00 | 0.00 | 0.00 | 64 | 1011.0 |
| 20260506182511 | 11 | 70 | 8.0 | 11.3 | 0.00 | 0.00 | 0.00 | 64 | 1011.0 |
| 20260506182011 | 11 | 51 | 8.0 | 11.3 | 0.00 | 0.00 | 0.00 | 64 | 1011.0 |
| 20260506181511 | 11 | 45 | 6.4 | 9.7 | 0.00 | 0.00 | 0.00 | 65 | 1011.0 |
| 20260506181011 | 11 | 27 | 6.4 | 9.7 | 0.00 | 0.00 | 0.00 | 65 | 1010.9 |
| 20260506180509 | 11 | 28 | 6.4 | 12.9 | 0.00 | 0.00 | 0.00 | 65 | 1010.8 |
| 20260506180009 | 11 | 36 | 9.7 | 12.9 | 0.00 | 0.00 | 0.00 | 65 | 1010.8 |
| 20260506175508 | 11 | 34 | 8.0 | 12.9 | 0.00 | 0.00 | 0.00 | 64 | 1010.7 |
| 20260506175007 | 11 | 32 | 9.7 | 14.5 | 0.00 | 0.00 | 0.00 | 64 | 1010.6 |
| 20260506174506 | 11 | 44 | 4.8 | 14.5 | 0.00 | 0.00 | 0.00 | 66 | 1010.6 |
| 20260506174009 | 11 | 44 | 8.0 | 12.9 | 0.00 | 0.00 | 0.00 | 65 | 1010.5 |
| 20260506173505 | 11 | 25 | 8.0 | 12.9 | 0.00 | 0.00 | 0.00 | 64 | 1010.5 |
| 20260506173005 | 11 | 39 | 9.7 | 12.9 | 0.00 | 0.00 | 0.00 | 65 | 1010.4 |
| 20260506172505 | 11 | 46 | 6.4 | 12.9 | 0.00 | 0.00 | 0.00 | 64 | 1010.4 |
| 20260506172004 | 11 | 37 | 6.4 | 12.9 | 0.00 | 0.00 | 0.00 | 64 | 1010.4 |
| 20260506171504 | 11 | 28 | 6.4 | 17.7 | 0.00 | 0.00 | 0.00 | 65 | 1010.4 |
| 20260506171003 | 11 | 39 | 11.3 | 17.7 | 0.00 | 0.00 | 0.00 | 64 | 1010.3 |
| 20260506170505 | 11 | 47 | 11.3 | 14.5 | 0.00 | 0.00 | 0.00 | 63 | 1010.2 |
| 20260506170008 | 11 | 34 | 9.7 | 14.5 | 0.00 | 0.00 | 0.00 | 64 | 1010.2 |
| 20260506165503 | 11 | 17 | 9.7 | 17.7 | 0.00 | 0.00 | 0.00 | 64 | 1010.2 |
| 20260506165005 | 11 | 39 | 12.9 | 17.7 | 0.00 | 0.00 | 0.00 | 63 | 1010.2 |
| 20260506164502 | 11 | 22 | 11.3 | 22.5 | 0.00 | 0.00 | 0.00 | 64 | 1010.3 |
| 20260506164002 | 11 | 37 | 16.1 | 24.1 | 0.00 | 0.00 | 0.00 | 63 | 1010.2 |
| 20260506163502 | 11 | 37 | 14.5 | 24.1 | 0.00 | 0.00 | 0.00 | 64 | 1010.3 |
| 20260506163005 | 11 | 22 | 19.3 | 24.1 | 0.00 | 0.00 | 0.00 | 63 | 1010.3 |
| 20260506162502 | 11 | 19 | 14.5 | 24.1 | 0.00 | 0.00 | 0.00 | 63 | 1010.3 |
| 20260506162001 | 11 | 32 | 16.1 | 19.3 | 0.00 | 0.00 | 0.00 | 64 | 1010.2 |
| 20260506161612 | 11 | 41 | 11.3 | 20.9 | 0.00 | 0.00 | 0.00 | 63 | 1010.2 |
| 20260506161100 | 11 | 30 | 11.3 | 20.9 | 0.00 | 0.00 | 0.00 | 63 | 1010.2 |
| 20260506160600 | 11 | 44 | 12.9 | 19.3 | 0.00 | 0.00 | 0.00 | 63 | 1010.2 |
| 20260506160110 | 11 | 30 | 12.9 | 19.3 | 0.00 | 0.00 | 0.00 | 63 | 1010.2 |
| 20260506155600 | 11 | 32 | 11.3 | 14.5 | 0.00 | 0.00 | 0.00 | 64 | 1010.2 |
| 20260506155059 | 11 | 34 | 11.3 | 17.7 | 0.00 | 0.00 | 0.00 | 63 | 1010.2 |
| 20260506154602 | 11 | 33 | 11.3 | 17.7 | 0.00 | 0.00 | 0.00 | 64 | 1010.2 |
| 20260506154059 | 11 | 13 | 12.9 | 17.7 | 0.00 | 0.00 | 0.00 | 64 | 1010.2 |
| 20260506153559 | 11 | 30 | 11.3 | 17.7 | 0.00 | 0.00 | 0.00 | 64 | 1010.2 |
| 20260506153058 | 11 | 32 | 9.7 | 17.7 | 0.00 | 0.00 | 0.00 | 65 | 1010.2 |
| 20260506152558 | 11 | 30 | 11.3 | 17.7 | 0.00 | 0.00 | 0.00 | 64 | 1010.2 |
| 20260506152058 | 11 | 14 | 11.3 | 25.7 | 0.00 | 0.00 | 0.00 | 65 | 1010.2 |
| 20260506151558 | 11 | 22 | 16.1 | 25.7 | 0.00 | 0.00 | 0.00 | 65 | 1010.1 |
| 20260506151057 | 11 | 20 | 14.5 | 22.5 | 0.00 | 0.00 | 0.00 | 63 | 1010.1 |
| 20260506150559 | 11 | 4 | 16.1 | 24.1 | 0.00 | 0.00 | 0.00 | 63 | 1010.1 |
| 20260506145556 | 11 | 24 | 14.5 | 22.5 | 0.00 | 0.00 | 0.00 | 62 | 1010.1 |
| 20260506145058 | 11 | 7 | 16.1 | 25.7 | 0.00 | 0.00 | 0.00 | 62 | 1010.1 |
| 20260506144609 | 11 | 23 | 16.1 | 25.7 | 0.00 | 0.00 | 0.00 | 62 | 1010.0 |
| 20260506144054 | 11 | 22 | 17.7 | 25.7 | 0.00 | 0.00 | 0.00 | 62 | 1010.0 |
| 20260506143554 | 11 | 23 | 16.1 | 22.5 | 0.00 | 0.00 | 0.00 | 63 | 1010.0 |
| 20260506143056 | 12 | 7 | 12.9 | 29.0 | 0.00 | 0.00 | 0.00 | 60 | 1010.0 |
| 20260506142557 | 11 | 354 | 17.7 | 29.0 | 0.00 | 0.00 | 0.00 | 61 | 1010.0 |
| 20260506142053 | 11 | 18 | 14.5 | 22.5 | 0.00 | 0.00 | 0.00 | 61 | 1010.0 |
| 20260506141554 | 12 | 13 | 14.5 | 22.5 | 0.00 | 0.00 | 0.00 | 61 | 1010.0 |
| 20260506141056 | 12 | 357 | 12.9 | 29.0 | 0.00 | 0.00 | 0.00 | 61 | 1009.9 |
| 20260506140556 | 12 | 30 | 17.7 | 30.6 | 0.00 | 0.00 | 0.00 | 61 | 1009.9 |
| 20260506140106 | 12 | 17 | 24.1 | 33.8 | 0.00 | 0.00 | 0.00 | 59 | 1010.0 |
| 20260506135551 | 12 | 19 | 24.1 | 35.4 | 0.00 | 0.00 | 0.00 | 58 | 1010.0 |
| 20260506135051 | 12 | 27 | 20.9 | 37.0 | 0.00 | 0.00 | 0.00 | 61 | 1009.9 |
| 20260506134552 | 12 | 31 | 24.1 | 32.2 | 0.00 | 0.00 | 0.00 | 58 | 1009.7 |
| 20260506134051 | 12 | 349 | 24.1 | 32.2 | 0.00 | 0.00 | 0.00 | 58 | 1009.6 |
| 20260506133551 | 12 | 29 | 14.5 | 25.7 | 0.00 | 0.00 | 0.00 | 60 | 1009.6 |
| 20260506133111 | 12 | 27 | 19.3 | 29.0 | 0.00 | 0.00 | 0.00 | 58 | 1009.6 |
| 20260506132554 | 12 | 21 | 17.7 | 29.0 | 0.00 | 0.00 | 0.00 | 58 | 1009.6 |
| 20260506132050 | 12 | 18 | 17.7 | 27.4 | 0.00 | 0.00 | 0.00 | 61 | 1009.6 |
| 20260506131549 | 12 | 360 | 17.7 | 25.7 | 0.00 | 0.00 | 0.00 | 60 | 1009.6 |
| 20260506131053 | 12 | 27 | 20.9 | 25.7 | 0.00 | 0.00 | 0.00 | 62 | 1009.6 |
| 20260506130550 | 12 | 352 | 14.5 | 22.5 | 0.00 | 0.00 | 0.00 | 63 | 1009.4 |
| 20260506130131 | 12 | 355 | 17.7 | 22.5 | 0.00 | 0.00 | 0.00 | 65 | 1009.4 |
| 20260506125548 | 12 | 352 | 12.9 | 20.9 | 0.00 | 0.00 | 0.00 | 66 | 1009.4 |
| 20260506125048 | 12 | 347 | 16.1 | 24.1 | 0.00 | 0.00 | 0.00 | 67 | 1009.4 |
| 20260506124551 | 12 | 337 | 19.3 | 24.1 | 0.00 | 0.00 | 0.00 | 65 | 1009.4 |
| 20260506124048 | 12 | 346 | 17.7 | 24.1 | 0.00 | 0.00 | 0.00 | 67 | 1009.4 |
| 20260506123548 | 12 | 351 | 16.1 | 24.1 | 0.00 | 0.00 | 0.00 | 68 | 1009.3 |
| 20260506123048 | 12 | 338 | 17.7 | 24.1 | 0.00 | 0.00 | 0.00 | 69 | 1009.3 |
| 20260506122548 | 12 | 337 | 17.7 | 24.1 | 0.00 | 0.00 | 0.00 | 69 | 1009.3 |
| 20260506122046 | 12 | 343 | 17.7 | 24.1 | 0.00 | 0.00 | 0.00 | 69 | 1009.2 |
| 20260506121552 | 12 | 351 | 19.3 | 29.0 | 0.00 | 0.00 | 0.00 | 69 | 1009.3 |
| 20260506121048 | 12 | 328 | 19.3 | 29.0 | 0.00 | 0.00 | 0.00 | 69 | 1009.2 |
| 20260506120546 | 12 | 352 | 20.9 | 30.6 | 0.00 | 0.00 | 0.00 | 68 | 1009.2 |
| 20260506120046 | 12 | 328 | 22.5 | 29.0 | 0.00 | 0.00 | 0.00 | 68 | 1009.1 |
| 20260506115547 | 12 | 331 | 20.9 | 29.0 | 0.00 | 0.00 | 0.00 | 67 | 1009.1 |
| 20260506115044 | 12 | 346 | 20.9 | 32.2 | 0.00 | 0.00 | 0.00 | 69 | 1009.1 |
| 20260506114544 | 12 | 323 | 24.1 | 32.2 | 0.00 | 0.00 | 0.00 | 68 | 1009.1 |
| 20260506114044 | 12 | 354 | 24.1 | 32.2 | 0.00 | 0.00 | 0.00 | 67 | 1009.0 |
| 20260506113544 | 12 | 341 | 19.3 | 29.0 | 0.00 | 0.00 | 0.00 | 68 | 1009.0 |
| 20260506113050 | 12 | 321 | 20.9 | 32.2 | 0.00 | 0.00 | 0.00 | 66 | 1009.0 |
| 20260506112544 | 12 | 356 | 25.7 | 32.2 | 0.00 | 0.00 | 0.00 | 65 | 1009.0 |
| 20260506112043 | 12 | 343 | 22.5 | 30.6 | 0.00 | 0.00 | 0.00 | 62 | 1009.0 |
| 20260506111544 | 13 | 314 | 19.3 | 29.0 | 0.00 | 0.00 | 0.00 | 58 | 1009.0 |
| 20260506111043 | 13 | 343 | 20.9 | 27.4 | 0.00 | 0.00 | 0.00 | 58 | 1009.0 |
| 20260506110543 | 13 | 345 | 16.1 | 30.6 | 0.00 | 0.00 | 0.00 | 60 | 1008.9 |
| 20260506110044 | 13 | 356 | 20.9 | 30.6 | 0.00 | 0.00 | 0.00 | 60 | 1008.9 |
| 20260506105543 | 12 | 2 | 17.7 | 25.7 | 0.00 | 0.00 | 0.00 | 60 | 1008.9 |
| 20260506105041 | 12 | 356 | 19.3 | 25.7 | 0.00 | 0.00 | 0.00 | 61 | 1008.9 |
| 20260506104543 | 12 | 359 | 19.3 | 24.1 | 0.00 | 0.00 | 0.00 | 62 | 1008.9 |
| 20260506104040 | 12 | 352 | 14.5 | 27.4 | 0.00 | 0.00 | 0.00 | 62 | 1009.0 |
| 20260506103539 | 12 | 8 | 19.3 | 27.4 | 0.00 | 0.00 | 0.00 | 60 | 1009.0 |
| 20260506103040 | 12 | 355 | 16.1 | 25.7 | 0.00 | 0.00 | 0.00 | 58 | 1009.0 |
| 20260506102539 | 12 | 10 | 14.5 | 25.7 | 0.00 | 0.00 | 0.00 | 58 | 1008.9 |
| 20260506102037 | 12 | 13 | 16.1 | 33.8 | 0.00 | 0.00 | 0.00 | 59 | 1008.9 |
| 20260506101538 | 12 | 358 | 27.4 | 33.8 | 0.00 | 0.00 | 0.00 | 56 | 1008.9 |
| 20260506101036 | 12 | 1 | 19.3 | 30.6 | 0.00 | 0.00 | 0.00 | 60 | 1008.9 |
| 20260506100535 | 12 | 23 | 16.1 | 32.2 | 0.00 | 0.00 | 0.00 | 61 | 1008.9 |
| 20260506100037 | 12 | 1 | 24.1 | 32.2 | 0.00 | 0.00 | 0.00 | 60 | 1008.9 |
| 20260506095535 | 12 | 14 | 25.7 | 32.2 | 0.00 | 0.00 | 0.00 | 59 | 1008.8 |
| 20260506095033 | 12 | 5 | 16.1 | 27.4 | 0.00 | 0.00 | 0.00 | 64 | 1008.8 |
| 20260506094533 | 12 | 10 | 17.7 | 27.4 | 0.00 | 0.00 | 0.00 | 66 | 1008.8 |
| 20260506094031 | 12 | 35 | 19.3 | 30.6 | 0.00 | 0.00 | 0.00 | 64 | 1008.9 |
| 20260506093531 | 12 | 23 | 24.1 | 30.6 | 0.00 | 0.00 | 0.00 | 63 | 1008.8 |
| 20260506093035 | 12 | 37 | 17.7 | 27.4 | 0.00 | 0.00 | 0.00 | 64 | 1008.8 |
| 20260506092531 | 12 | 31 | 22.5 | 27.4 | 0.00 | 0.00 | 0.00 | 63 | 1008.7 |
| 20260506092030 | 12 | 4 | 19.3 | 29.0 | 0.00 | 0.00 | 0.00 | 62 | 1008.7 |
| 20260506091530 | 12 | 6 | 16.1 | 29.0 | 0.00 | 0.00 | 0.00 | 63 | 1008.7 |
| 20260506091031 | 12 | 20 | 19.3 | 32.2 | 0.00 | 0.00 | 0.00 | 64 | 1008.7 |
| 20260506090528 | 12 | 360 | 22.5 | 32.2 | 0.00 | 0.00 | 0.00 | 62 | 1008.6 |
| 20260506090036 | 12 | 29 | 22.5 | 30.6 | 0.00 | 0.00 | 0.00 | 61 | 1008.6 |
| 20260506085526 | 12 | 352 | 20.9 | 30.6 | 0.00 | 0.00 | 0.00 | 65 | 1008.6 |
| 20260506085026 | 12 | 337 | 19.3 | 30.6 | 0.00 | 0.00 | 0.00 | 68 | 1008.6 |
| 20260506084527 | 12 | 330 | 20.9 | 32.2 | 0.00 | 0.00 | 0.00 | 68 | 1008.5 |
| 20260506084023 | 11 | 355 | 20.9 | 32.2 | 0.00 | 0.00 | 0.00 | 68 | 1008.5 |
| 20260506083521 | 11 | 335 | 20.9 | 29.0 | 0.00 | 0.00 | 0.00 | 75 | 1008.5 |
| 20260506083028 | 11 | 334 | 24.1 | 29.0 | 0.00 | 0.00 | 0.00 | 76 | 1008.5 |
| 20260506082519 | 11 | 309 | 17.7 | 27.4 | 0.00 | 0.00 | 0.00 | 77 | 1008.5 |
| 20260506082017 | 11 | 333 | 20.9 | 27.4 | 0.00 | 0.00 | 0.00 | 78 | 1008.4 |
| 20260506081517 | 11 | 333 | 19.3 | 27.4 | 0.00 | 0.00 | 0.00 | 78 | 1008.4 |
| 20260506081016 | 11 | 317 | 17.7 | 27.4 | 0.00 | 0.00 | 0.00 | 79 | 1008.4 |
| 20260506080516 | 11 | 321 | 19.3 | 27.4 | 0.00 | 0.00 | 0.00 | 79 | 1008.4 |
| 20260506073513 | 10 | 322 | 20.9 | 25.7 | 0.00 | 0.00 | 0.00 | 80 | 1008.4 |
| 20260506073013 | 10 | 333 | 19.3 | 24.1 | 0.00 | 0.00 | 0.00 | 80 | 1008.4 |
| 20260506072513 | 10 | 316 | 14.5 | 25.7 | 0.00 | 0.00 | 0.00 | 81 | 1008.4 |
| 20260506072012 | 10 | 351 | 17.7 | 27.4 | 0.00 | 0.00 | 0.00 | 81 | 1008.4 |
| 20260506071512 | 10 | 351 | 17.7 | 27.4 | 0.00 | 0.00 | 0.00 | 82 | 1008.4 |
| 20260506071015 | 10 | 326 | 17.7 | 24.1 | 0.00 | 0.00 | 0.00 | 81 | 1008.4 |
| 20260506070513 | 10 | 329 | 16.1 | 25.7 | 0.00 | 0.00 | 0.00 | 82 | 1008.4 |
| 20260506062506 | 10 | 335 | 19.3 | 24.1 | 0.00 | 0.00 | 0.00 | 82 | 1008.2 |
| 20260506062008 | 10 | 342 | 16.1 | 20.9 | 0.00 | 0.00 | 0.00 | 83 | 1008.2 |
| 20260506061606 | 10 | 337 | 16.1 | 22.5 | 0.00 | 0.00 | 0.00 | 84 | 1008.1 |
| 20260506061007 | 10 | 313 | 12.9 | 19.3 | 0.00 | 0.00 | 0.00 | 84 | 1008.1 |
| 20260506060508 | 10 | 321 | 12.9 | 22.5 | 0.00 | 0.00 | 0.00 | 84 | 1008.0 |
| 20260506051001 | 9 | 326 | 11.3 | 17.7 | 0.00 | 0.00 | 0.00 | 82 | 1008.2 |
| 20260506050503 | 9 | 314 | 11.3 | 17.7 | 0.00 | 0.00 | 0.00 | 83 | 1008.3 |
| 20260506045059 | 9 | 340 | 16.1 | 20.9 | 0.00 | 0.00 | 0.00 | 81 | 1008.3 |
| 20260506044600 | 9 | 1 | 16.1 | 0.0 | 0.00 | 0.00 | 0.00 | 81 | 1008.3 |
| 20260506044059 | 9 | 329 | 12.9 | 25.7 | 0.00 | 0.00 | 0.00 | 82 | 1008.3 |
| 20260506043559 | 9 | 360 | 17.7 | 25.7 | 0.00 | 0.00 | 0.00 | 81 | 1008.2 |
| 20260506043110 | 9 | 344 | 19.3 | 25.7 | 0.00 | 0.00 | 0.00 | 81 | 1008.2 |
| 20260506042559 | 9 | 358 | 20.9 | 25.7 | 0.00 | 0.00 | 0.00 | 81 | 1008.2 |
| 20260506042059 | 9 | 350 | 17.7 | 25.7 | 0.00 | 0.00 | 0.00 | 83 | 1008.2 |
| 20260506041559 | 9 | 323 | 17.7 | 25.7 | 0.00 | 0.00 | 0.00 | 82 | 1008.2 |
| 20260506041057 | 9 | 318 | 16.1 | 22.5 | 0.00 | 0.00 | 0.00 | 82 | 1008.3 |
| 20260506040558 | 9 | 356 | 14.5 | 22.5 | 0.00 | 0.00 | 0.00 | 82 | 1008.3 |
| 20260506040057 | 9 | 330 | 16.1 | 22.5 | 0.00 | 0.00 | 0.00 | 81 | 1008.3 |
| 20260506035556 | 9 | 346 | 17.7 | 27.4 | 0.00 | 0.00 | 0.00 | 81 | 1008.3 |
| 20260506035055 | 9 | 352 | 22.5 | 27.4 | 0.00 | 0.00 | 0.00 | 81 | 1008.3 |
| 20260506034613 | 9 | 352 | 20.9 | 29.0 | 0.00 | 0.00 | 0.00 | 81 | 1008.3 |
| 20260506034054 | 9 | 330 | 24.1 | 29.0 | 0.00 | 0.00 | 0.00 | 80 | 1008.3 |
| 20260506033655 | 9 | 344 | 16.1 | 29.0 | 0.00 | 0.00 | 0.00 | 81 | 1008.4 |
| 20260506033054 | 9 | 12 | 20.9 | 32.2 | 0.00 | 0.00 | 0.00 | 80 | 1008.4 |
| 20260506032553 | 9 | 338 | 19.3 | 32.2 | 0.00 | 0.00 | 0.00 | 80 | 1008.4 |
| 20260506032053 | 9 | 3 | 24.1 | 32.2 | 0.00 | 0.00 | 0.00 | 80 | 1008.4 |
| 20260506031554 | 9 | 334 | 20.9 | 27.4 | 0.00 | 0.00 | 0.00 | 81 | 1008.4 |
| 20260506031053 | 9 | 337 | 17.7 | 27.4 | 0.00 | 0.00 | 0.00 | 80 | 1008.5 |
| 20260506030550 | 9 | 336 | 20.9 | 27.4 | 0.00 | 0.00 | 0.00 | 80 | 1008.5 |
| 20260506030050 | 9 | 355 | 17.7 | 24.1 | 0.00 | 0.00 | 0.00 | 80 | 1008.5 |
| 20260506025548 | 9 | 345 | 16.1 | 22.5 | 0.00 | 0.00 | 0.00 | 80 | 1008.6 |
| 20260506025047 | 9 | 13 | 16.1 | 25.7 | 0.00 | 0.00 | 0.00 | 80 | 1008.5 |
| 20260506024552 | 9 | 354 | 16.1 | 27.4 | 0.00 | 0.00 | 0.00 | 80 | 1008.7 |
| 20260506024047 | 9 | 360 | 17.7 | 27.4 | 0.00 | 0.00 | 0.00 | 78 | 1008.7 |
| 20260506023546 | 10 | 358 | 16.1 | 24.1 | 0.00 | 0.00 | 0.00 | 77 | 1008.7 |
| 20260506023054 | 10 | 326 | 16.1 | 24.1 | 0.00 | 0.00 | 0.00 | 77 | 1008.6 |
| 20260506022545 | 10 | 333 | 16.1 | 27.4 | 0.00 | 0.00 | 0.00 | 77 | 1008.7 |
| 20260506022045 | 10 | 343 | 19.3 | 29.0 | 0.00 | 0.00 | 0.00 | 77 | 1008.7 |
| 20260506021544 | 10 | 13 | 19.3 | 29.0 | 0.00 | 0.00 | 0.00 | 78 | 1008.7 |
| 20260506021043 | 10 | 9 | 17.7 | 22.5 | 0.00 | 0.00 | 0.00 | 79 | 1008.6 |
| 20260506020542 | 10 | 340 | 16.1 | 22.5 | 0.00 | 0.00 | 0.00 | 79 | 1008.7 |
| 20260506020043 | 10 | 354 | 16.1 | 22.5 | 0.00 | 0.00 | 0.00 | 79 | 1008.7 |
| 20260506015542 | 10 | 359 | 16.1 | 20.9 | 0.00 | 0.00 | 0.00 | 79 | 1008.6 |
| 20260506015045 | 10 | 5 | 16.1 | 22.5 | 0.00 | 0.00 | 0.00 | 80 | 1008.7 |
| 20260506014541 | 9 | 348 | 16.1 | 24.1 | 0.00 | 0.00 | 0.00 | 80 | 1008.6 |
| 20260506014041 | 9 | 339 | 16.1 | 24.1 | 0.00 | 0.00 | 0.00 | 80 | 1008.6 |
| 20260506013543 | 9 | 354 | 14.5 | 24.1 | 0.00 | 0.00 | 0.00 | 81 | 1008.6 |
| 20260506013042 | 9 | 347 | 12.9 | 24.1 | 0.00 | 0.00 | 0.00 | 80 | 1008.6 |
| 20260506012540 | 9 | 334 | 14.5 | 24.1 | 0.00 | 0.00 | 0.00 | 80 | 1008.6 |
| 20260506012041 | 9 | 333 | 17.7 | 24.1 | 0.00 | 0.00 | 0.00 | 80 | 1008.7 |
| 20260506011543 | 9 | 335 | 16.1 | 27.4 | 0.00 | 0.00 | 0.00 | 80 | 1008.7 |
| 20260506011037 | 9 | 334 | 16.1 | 27.4 | 0.00 | 0.00 | 0.00 | 80 | 1008.7 |
| 20260506010537 | 9 | 323 | 17.7 | 25.7 | 0.00 | 0.00 | 0.00 | 80 | 1008.7 |
| 20260506010051 | 9 | 335 | 17.7 | 22.5 | 0.00 | 0.00 | 0.00 | 80 | 1008.8 |
| 20260506005535 | 9 | 326 | 12.9 | 24.1 | 0.00 | 0.00 | 0.00 | 80 | 1008.8 |
| 20260506005034 | 9 | 320 | 17.7 | 24.1 | 0.00 | 0.00 | 0.00 | 79 | 1008.9 |
| 20260506004532 | 9 | 317 | 14.5 | 20.9 | 0.00 | 0.00 | 0.00 | 78 | 1009.0 |
| 20260506004032 | 10 | 328 | 12.9 | 22.5 | 0.00 | 0.00 | 0.00 | 79 | 1009.0 |
| 20260506003531 | 9 | 315 | 16.1 | 24.1 | 0.00 | 0.00 | 0.00 | 78 | 1009.1 |
| 20260506003031 | 10 | 328 | 16.1 | 24.1 | 0.00 | 0.00 | 0.00 | 78 | 1009.1 |
| 20260506002532 | 10 | 336 | 17.7 | 24.1 | 0.00 | 0.00 | 0.00 | 78 | 1009.1 |
| 20260506002029 | 10 | 337 | 16.1 | 24.1 | 0.00 | 0.00 | 0.00 | 78 | 1009.1 |
| 20260506001530 | 10 | 335 | 20.9 | 24.1 | 0.00 | 0.00 | 0.00 | 76 | 1009.2 |
| 20260506001028 | 10 | 334 | 17.7 | 24.1 | 0.00 | 0.00 | 0.00 | 77 | 1009.2 |
| 20260506000527 | 10 | 335 | 14.5 | 24.1 | 0.00 | 0.00 | 0.00 | 77 | 1009.2 |
| 20260506000026 | 10 | 352 | 16.1 | 20.9 | 0.00 | 0.00 | 0.00 | 77 | 1009.2 |
| 20260505235524 | 10 | 343 | 16.1 | 22.5 | 0.00 | 0.05 | 0.00 | 76 | 1009.3 |
| 20260505235023 | 10 | 342 | 14.5 | 25.7 | 0.00 | 0.05 | 0.00 | 77 | 1009.3 |
| 20260505234523 | 10 | 330 | 16.1 | 25.7 | 0.00 | 0.05 | 0.00 | 76 | 1009.3 |
| 20260505234022 | 10 | 356 | 16.1 | 22.5 | 0.00 | 0.05 | 0.00 | 76 | 1009.4 |
| 20260505233521 | 10 | 15 | 16.1 | 24.1 | 0.00 | 0.05 | 0.00 | 75 | 1009.4 |
| 20260505233021 | 10 | 354 | 16.1 | 24.1 | 0.00 | 0.05 | 0.00 | 75 | 1009.4 |
| 20260505232519 | 10 | 333 | 17.7 | 24.1 | 0.00 | 0.05 | 0.00 | 75 | 1009.4 |
| 20260505232019 | 10 | 346 | 16.1 | 25.7 | 0.00 | 0.05 | 0.00 | 75 | 1009.5 |
| 20260505231518 | 10 | 360 | 14.5 | 25.7 | 0.00 | 0.05 | 0.00 | 74 | 1009.5 |
| 20260505231017 | 10 | 348 | 19.3 | 25.7 | 0.00 | 0.05 | 0.00 | 74 | 1009.6 |
| 20260505230516 | 10 | 330 | 16.1 | 24.1 | 0.00 | 0.05 | 0.00 | 74 | 1009.6 |
| 20260505230023 | 10 | 360 | 16.1 | 24.1 | 0.00 | 0.05 | 0.00 | 74 | 1009.7 |
| 20260505225516 | 10 | 359 | 16.1 | 25.7 | 0.00 | 0.05 | 0.00 | 74 | 1009.7 |
| 20260505225014 | 10 | 349 | 17.7 | 22.5 | 0.00 | 0.05 | 0.00 | 73 | 1009.7 |
| 20260505224513 | 10 | 356 | 16.1 | 20.9 | 0.00 | 0.05 | 0.00 | 74 | 1009.7 |
| 20260505224012 | 10 | 1 | 14.5 | 25.7 | 0.00 | 0.05 | 0.00 | 74 | 1009.7 |
| 20260505223511 | 10 | 13 | 16.1 | 25.7 | 0.00 | 0.05 | 0.00 | 74 | 1009.8 |
| 20260505223011 | 10 | 1 | 16.1 | 24.1 | 0.00 | 0.05 | 0.00 | 74 | 1009.8 |
| 20260505222513 | 10 | 339 | 17.7 | 24.1 | 0.00 | 0.05 | 0.00 | 74 | 1009.8 |
| 20260505222009 | 10 | 342 | 16.1 | 22.5 | 0.00 | 0.05 | 0.00 | 75 | 1009.8 |
| 20260505221509 | 10 | 8 | 17.7 | 24.1 | 0.00 | 0.05 | 0.00 | 74 | 1009.9 |
| 20260505221009 | 10 | 8 | 16.1 | 24.1 | 0.00 | 0.05 | 0.00 | 74 | 1009.9 |
| 20260505220506 | 10 | 15 | 12.9 | 24.1 | 0.00 | 0.05 | 0.00 | 74 | 1009.9 |
| 20260505220006 | 10 | 1 | 19.3 | 25.7 | 0.00 | 0.05 | 0.05 | 74 | 1009.9 |
| 20260505215507 | 10 | 325 | 16.1 | 25.7 | 0.00 | 0.05 | 0.05 | 75 | 1009.9 |
| 20260505215005 | 10 | 358 | 14.5 | 22.5 | 0.00 | 0.05 | 0.05 | 75 | 1010.0 |
| 20260505214506 | 10 | 5 | 16.1 | 22.5 | 0.00 | 0.05 | 0.05 | 75 | 1010.0 |
| 20260505214006 | 10 | 348 | 14.5 | 27.4 | 0.00 | 0.05 | 0.05 | 75 | 1010.0 |
| 20260505213506 | 10 | 338 | 17.7 | 27.4 | 0.00 | 0.05 | 0.05 | 75 | 1010.0 |
| 20260505213012 | 10 | 326 | 17.7 | 24.1 | 0.00 | 0.05 | 0.05 | 75 | 1010.0 |
| 20260505212506 | 10 | 332 | 16.1 | 24.1 | 0.00 | 0.05 | 0.05 | 76 | 1010.0 |
| 20260505212004 | 10 | 347 | 17.7 | 25.7 | 0.00 | 0.05 | 0.05 | 75 | 1010.0 |
| 20260505211503 | 10 | 3 | 16.1 | 27.4 | 0.00 | 0.05 | 0.05 | 75 | 1009.9 |
| 20260505211003 | 10 | 336 | 16.1 | 27.4 | 0.00 | 0.05 | 0.05 | 76 | 1010.0 |
| 20260505210503 | 10 | 5 | 17.7 | 24.1 | 0.00 | 0.05 | 0.05 | 75 | 1010.0 |
| 20260505210003 | 10 | 352 | 14.5 | 27.4 | 0.00 | 0.05 | 0.05 | 75 | 1010.0 |
| 20260505205502 | 10 | 1 | 19.3 | 27.4 | 0.00 | 0.05 | 0.05 | 75 | 1010.0 |
| 20260505205001 | 10 | 355 | 16.1 | 27.4 | 0.00 | 0.05 | 0.05 | 75 | 1010.0 |
| 20260505204501 | 10 | 340 | 19.3 | 27.4 | 0.00 | 0.05 | 0.05 | 75 | 1010.0 |
| 20260505204003 | 10 | 343 | 19.3 | 27.4 | 0.00 | 0.05 | 0.05 | 75 | 1010.1 |